Location: Newark
(9.4667°S, 159.8167°E)
Time: 17:41:45
(UTC+00:00)

Vanguard 1 - Pass Details

Date: 23 November 2019
Orbit: 652 x 3831 km, 34.2° (Epoch: 05 December)

Event Time Altitude Azimuth Distance (km) Brightness Sun altitude
Rises 14:38:15 0° 232° (SW) 6,416 14.2 -52.7°
Reaches altitude 10° 14:42:30 10° 224° (SW) 5,782 14.0 -52.1°
Maximum altitude 15:01:01 43° 156° (SSE) 4,643 13.5 -49.1°
Drops below altitude 10° 15:22:27 10° 91° (E) 6,669 14.6 -45.3°
Sets 15:27:44 0° 84° (E) 7,435 15.0 -44.3°
